Regional Weather Roundup
Issued by NWS Albany, NY

Home | Current Version | Previous Version | Graphics & Text | Print | Product List | Glossary Off
Versions: 1 2 3 4 5 6 7 8 9 10 11 12 13 14 15 16 17 18 19 20 21 22 23 24 25 26 27 28 29 30 31 32 33 34 35 36 37 38 39 40 41 42 43 44 45 46 47 48 49 50

000
ASUS41 KALY 121110
RWRALY

NEW YORK STATE HOURLY WEATHER ROUNDUP
NATIONAL WEATHER SERVICE ALBANY NY
700 AM EDT SAT JUL 12 2014

NOTE: "FAIR" INDICATES FEW OR NO CLOUDS BELOW 12,000 FEET WITH NO
SIGNIFICANT WEATHER AND/OR NO OBSTRUCTIONS TO VISIBILITY.

NYZ032-033-038>043-046>054-057>066-NYZ062>081-121200-
EAST


CITY           SKY/WX    TMP DP  RH WIND       PRES   REMARKS
ALBANY         MOSUNNY   62  57  83 CALM      30.22S
GLENS FALLS    MOSUNNY   59  57  93 CALM      30.22S
POUGHKEEPSIE   MOSUNNY   63  60  90 CALM      30.22S
NEWBURGH       MOSUNNY   64  63  94 CALM      30.25R
MONTGOMERY     SUNNY     62  60  93 CALM      30.24R
WHITE PLAINS   SUNNY     68  64  87 CALM      30.23S
ISLIP          MOSUNNY   67  63  87 CALM      30.22S
NEW YORK CITY  MOSUNNY   71  65  81 S5        30.22S
CENTRAL PARK   SUNNY     73  64  73 CALM      30.26R
$$

NYZ005>009-017-018-044>046-055-056-121200-
CENTRAL


CITY           SKY/WX    TMP DP  RH WIND       PRES   REMARKS
FULTON         MOSUNNY   63  56  78 VRB3      30.17S
SYRACUSE       PTSUNNY   61  56  83 CALM      30.17S
ROME           PTSUNNY   59  55  87 SE5       30.20S
ELMIRA         MOSUNNY   62  60  93 CALM      30.21R
BINGHAMTON     PTSUNNY   62  58  86 S5        30.23S
$$

NYZ026>034-041>043-121200-
NORTH


CITY           SKY/WX    TMP DP  RH WIND       PRES   REMARKS
WATERTOWN      MOSUNNY   58  52  80 E3        30.17S
FORT DRUM      NOT AVBL
MASSENA        MOSUNNY   58  55  90 CALM      30.19S
SARANAC LAKE   CLOUDY    46  46 100 CALM      30.22S
PLATTSBURGH    SUNNY     58  55  90 CALM      30.19S
$$

NYZ001>004-010>016-019>021-121200-
WEST


CITY           SKY/WX    TMP DP  RH WIND       PRES   REMARKS
NIAGARA FALLS  MOSUNNY   61  58  90 CALM      30.17R
BUFFALO        MOSUNNY   64  56  75 S3        30.17S
DUNKIRK        SUNNY     60  55  83 CALM      30.17S
JAMESTOWN      MOSUNNY   57  54  88 CALM      30.22S
WELLSVILLE     PTSUNNY   65  59  81 S7        30.24S
ROCHESTER      PTSUNNY   64  60  87 SW6       30.16F
PENN YAN       PTSUNNY   67  62  84 SW9       30.19S
$$

             KEY
       WCI = WIND CHILL INDEX
       VSB = VISIBILITY
       HX  = HEAT INDEX
$$



USA.gov is the U.S. government's official web portal to all federal, state and local government web resources and services.